Dewpoint
52 52 52 52 53 53 54 55 55 54 54 54 53 53 53 53 52 49 45 42 49 53 55 35 33 25 19 16 18 21 19 17 18 20 21 22 22 27 27 22 22 37 33 36 61
52 52 52 52 52 52 53 53 54 55 54 53 54 53 53 54 49 47 49 51 55 55 38 31 16 22 24 18 14 15 15 15 19 20 19 20 20 21 20 19 20 39 39 40 45
52 52 52 52 52 52 52 52 53 54 54 53 53 53 52 52 44 34 52 53 56 57 35 31 20 17 22 15 13 16 13 15 16 20 20 19 19 18 17 17 18 32 37 40 31
54 54 54 54 53 53 52 52 52 53 54 53 52 52 52 50 19 35 62 58 57 55 36 20 15 17 23 23 16 12 16 15 13 18 22 20 20 18 19 22 21 29 39 35 43
55 55 55 55 54 54 54 53 53 52 53 52 52 52 49 43 42 40 63 58 53 45 27 16 16 18 23 22 19 13 14 13 14 16 17 18 16 16 16 18 22 37 38 39 40
55 55 55 55 55 55 55 54 53 52 51 52 52 51 48 41 39 42 56 53 47 33 28 20 17 23 24 21 19 20 19 18 16 14 15 15 15 17 18 19 26 36 36 38 39
56 56 56 54 54 54 54 54 54 52 51 52 52 49 47 39 45 48 50 45 38 33 28 26 21 22 23 21 22 20 17 17 16 15 14 15 14 17 19 21 22 28 22 38 36
56 55 54 54 54 54 53 53 52 51 51 52 54 47 42 45 47 45 42 39 36 33 26 26 22 22 21 23 23 20 20 17 16 17 15 15 13 17 20 19 20 21 20 21 23
55 54 53 53 54 53 54 53 52 52 53 54 48 47 40 49 46 45 41 39 36 34 33 28 27 24 25 22 20 20 16 15 15 16 17 15 14 18 19 18 19 20 21 21 21
54 53 53 53 53 53 53 52 51 52 50 49 49 44 43 37 41 43 42 40 34 33 32 28 24 21 22 21 17 16 15 17 16 17 17 15 15 16 18 18 19 20 21 22 22
53 53 53 52 52 52 52 46 47 46 48 40 39 40 38 40 40 36 33 33 33 29 25 24 19 19 20 21 22 21 20 19 20 20 19 16 16 17 18 18 18 20 21 22 23
53 52 52 52 52 52 51 43 42 41 39 46 43 42 40 39 38 31 25 20 26 24 26 23 20 21 22 23 22 22 20 19 20 20 18 17 16 19 18 19 18 20 21 22 25
54 53 53 52 52 49 45 44 44 44 37 36 44 42 41 40 39 38 22 26 28 27 26 21 20 22 22 21 22 22 21 20 17 20 21 19 17 20 22 24 25 25 24 26 25
54 53 52 52 47 45 44 46 47 45 33 33 38 40 41 39 33 36 25 27 29 26 27 26 26 23 24 24 24 22 23 20 19 20 16 22 15 20 22 24 31 33 33 36 39
54 53 53 51 47 44 42 46 45 40 29 39 38 39 38 32 31 31 28 28 26 26 26 25 24 24 21 20 25 21 24 21 23 20 19 19 17 19 23 24 31 34 36 38 39
53 52 52 48 48 47 47 46 40 35 31 36 29 33 33 34 31 29 27 29 29 26 27 24 26 24 22 27 26 29 24 23 24 21 16 22 19 20 27 27 31 33 35 36 36
52 52 51 49 43 45 44 41 34 33 37 33 26 27 28 28 30 28 26 25 23 22 22 23 23 26 29 30 31 28 24 20 17 19 18 31 29 27 32 30 30 31 33 34 34
51 50 49 48 48 47 44 39 32 35 36 35 29 26 25 25 24 27 27 25 26 24 22 22 21 30 33 32 30 30 27 26 19 22 24 31 28 30 32 31 31 31 33 34 35
50 45 44 46 47 45 42 36 34 38 37 30 30 26 27 33 28 27 25 25 26 25 22 28 29 34 33 34 33 30 27 30 29 30 26 27 31 26 30 31 32 34 34 34 34
47 43 44 47 47 45 40 37 39 41 39 32 28 31 29 29 35 34 32 34 32 31 30 30 27 33 34 33 34 31 32 29 29 23 22 23 25 23 26 29 31 31 32 33 33
43 41 43 47 46 41 36 37 40 41 41 33 32 31 31 31 32 36 35 35 36 34 33 33 30 30 32 31 31 32 29 32 33 31 25 22 23 27 29 31 31 31 32 32 33
40 33 45 46 39 39 38 40 41 40 40 38 34 32 31 33 32 30 32 37 38 37 31 34 32 30 30 32 35 32 31 32 29 31 29 26 27 31 31 31 31 32 33 33 34
40 39 44 44 36 37 38 39 42 38 38 34 36 35 35 32 29 34 36 38 39 34 33 33 30 27 26 29 34 32 33 33 34 36 34 29 28 32 32 32 33 33 33 34 34
40 38 40 40 38 35 34 34 33 36 34 37 37 37 35 33 34 34 36 37 38 40 42 37 33 28 25 26 33 32 31 32 34 31 28 29 26 31 33 33 33 33 34 34 34
39 39 39 35 35 35 34 34 32 33 35 36 35 35 34 32 31 35 35 35 36 41 38 31 30 29 29 30 30 31 31 30 31 35 29 29 25 31 32 32 32 33 33 34 34
40 41 42 40 40 37 36 36 36 33 33 33 34 34 33 32 33 33 34 34 34 35 37 37 29 31 28 30 31 30 30 31 30 29 32 30 30 33 33 33 32 33 33 34 36
44 46 42 38 37 36 34 34 34 34 34 35 35 32 31 34 36 36 36 35 35 33 34 36 34 32 28 32 32 26 28 30 32 33 31 28 31 33 32 32 33 33 34 36 37
Lifted_Index
15 14 14 14 13 13 13 12 11 11 11 12 12 12 12 12 12 13 12 12 12 12 12 12 13 12 12 12 12 11 9 7 8 9 11 12 11 9 7 6 5 4 3 2 -0
15 14 14 14 13 13 13 12 12 11 11 11 12 12 12 12 12 11 12 11 11 11 11 12 12 11 11 11 11 11 9 8 9 11 12 12 11 9 7 6 5 4 3 2 0
15 14 14 14 13 13 13 12 12 11 11 11 12 12 12 11 10 9 9 9 9 9 11 12 11 10 10 10 11 10 9 9 10 12 13 13 11 9 7 6 5 4 3 2 1
14 13 13 13 12 12 12 12 12 12 11 11 11 11 11 11 9 8 7 7 8 8 10 11 11 10 9 10 10 10 9 10 11 12 13 12 10 8 7 6 5 3 3 2 2
13 12 12 12 12 12 12 12 12 12 12 12 11 11 10 10 9 8 5 6 7 9 10 10 10 9 9 9 9 9 9 9 9 10 10 9 8 6 5 4 3 2 2 1 1
12 12 12 12 12 12 12 12 12 12 12 12 11 11 10 9 9 8 6 6 8 9 10 10 9 9 9 9 9 8 8 7 7 7 7 6 5 4 3 3 2 2 1 1 1
12 12 12 12 12 12 12 12 12 11 12 12 11 10 9 8 8 7 7 8 9 10 10 10 9 8 8 8 8 7 6 5 5 4 4 3 3 3 2 2 2 2 2 2 2
12 12 12 12 12 12 12 11 11 11 11 11 10 9 8 8 8 7 7 8 8 8 9 8 8 8 8 8 7 6 5 4 4 3 2 2 2 2 2 2 2 2 3 3 3
12 12 12 12 12 11 11 11 10 10 10 10 10 9 8 8 7 7 7 7 7 7 7 7 7 7 7 7 6 5 3 3 3 3 2 2 2 2 2 2 2 3 3 3 4
12 12 12 12 12 11 10 9 9 9 9 9 8 8 7 7 6 6 6 6 6 6 6 6 6 7 7 6 5 3 3 3 3 3 3 3 3 2 2 1 2 3 3 4 4
13 12 12 12 12 10 8 8 7 6 6 7 7 7 6 6 6 6 6 6 6 5 5 5 5 5 6 6 5 3 3 3 3 3 3 3 3 2 1 1 2 3 3 4 4
13 12 12 12 11 9 7 7 6 6 5 6 6 6 5 5 5 5 6 6 5 5 4 4 4 5 5 5 4 4 3 3 3 3 3 3 3 2 2 2 2 3 3 3 3
12 12 12 11 10 8 7 6 6 6 5 5 5 5 5 4 4 5 6 6 5 4 4 4 4 4 4 4 4 3 3 3 3 2 2 3 3 2 2 2 3 3 3 2 2
12 12 12 11 9 7 6 6 6 5 4 3 4 4 4 4 4 4 5 5 4 3 3 3 3 3 3 3 3 3 2 2 2 2 2 2 2 2 2 2 3 2 2 2 2
12 11 11 11 9 7 6 5 5 4 2 2 2 3 3 3 3 3 3 3 3 3 3 2 2 2 3 2 2 2 2 2 2 2 2 2 2 2 2 2 2 2 1 2 2
11 11 11 10 9 7 5 4 3 2 1 1 2 2 2 3 3 3 2 2 2 3 2 2 2 2 2 1 2 2 1 1 2 2 2 2 2 1 1 1 1 1 1 2 2
11 11 10 10 8 5 4 3 2 1 0 0 1 2 2 2 2 2 2 2 2 2 2 2 1 1 0 0 0 1 1 1 1 1 1 1 1 1 1 1 1 2 2 3 3
10 10 9 8 7 4 3 2 1 0 0 0 1 1 2 2 2 2 1 1 1 1 1 1 1 0 -0 -1 -1 -0 0 0 0 0 1 1 1 1 1 1 2 2 3 3 3
9 9 8 6 5 3 2 1 0 -0 -0 0 1 1 1 1 1 1 1 1 1 1 1 1 0 -0 -1 -1 -1 -1 -0 -0 0 0 0 1 1 1 1 2 2 3 3 3 3
8 7 5 3 3 2 2 1 0 -1 -0 0 0 1 1 1 1 1 1 1 1 1 1 1 1 -0 -0 -1 -0 -0 -0 -0 0 0 0 1 1 1 2 2 2 3 3 4 4
7 5 3 1 1 1 1 1 0 -1 -0 0 1 1 1 1 0 0 0 0 1 1 1 1 1 0 -0 -0 -0 -0 -0 0 0 0 0 1 1 1 2 2 3 3 4 4 4
7 5 2 0 0 1 1 1 -0 -1 -0 0 1 1 1 1 1 1 0 0 0 1 1 1 1 1 0 0 0 0 0 0 0 0 1 1 1 2 2 2 3 3 3 4 4
6 4 2 -0 -0 0 0 0 -1 -1 -0 0 1 1 1 1 1 1 1 1 1 1 1 1 1 1 1 1 1 1 1 1 1 1 1 1 1 2 2 2 3 3 3 4 4
5 3 1 -0 -1 -0 0 -0 -0 -0 -0 -0 0 0 1 1 2 2 2 1 1 1 1 1 2 2 2 1 1 1 1 1 1 1 1 1 1 2 3 3 3 3 4 4 5
3 2 0 -1 -0 -0 -0 -0 -0 -0 -0 -0 -0 0 1 1 2 2 2 2 2 2 2 2 2 2 2 2 2 2 2 1 1 1 1 1 1 2 3 3 3 3 4 5 5
3 2 0 -0 -0 -0 -0 -0 -0 -0 0 -0 -0 0 1 2 2 2 2 2 2 2 2 2 3 3 2 2 3 3 2 2 1 1 1 1 1 2 3 3 3 4 5 6 7
2 2 1 0 -0 -0 -0 -0 0 0 0 0 0 0 1 2 3 3 3 3 3 3 2 2 3 3 3 2 3 3 2 2 1 1 1 1 2 2 2 3 3 4 6 7 8